TimeCDT,TemperatureF,Dew PointF,Humidity,Sea Level PressureIn,VisibilityMPH,Wind Direction,Wind SpeedMPH,Gust SpeedMPH,PrecipitationIn,Events,Conditions,WindDirDegrees,DateUTC
12:58 AM,47.8,42.6,82,30.01,10.0,East,1.2,-,N/A,,Clear,90,2013-10-08 05:58:00
1:58 AM,48.4,43.0,82,30.01,10.0,Variable,2.3,-,N/A,,Clear,0,2013-10-08 06:58:00
2:58 AM,48.0,42.8,82,30.01,10.0,East,1.2,-,N/A,,Clear,80,2013-10-08 07:58:00
3:58 AM,44.4,41.2,88,30.01,10.0,SE,4.6,-,N/A,,Clear,140,2013-10-08 08:58:00
4:58 AM,42.1,39.6,91,30.01,10.0,SE,4.6,-,N/A,,Clear,140,2013-10-08 09:58:00
5:58 AM,46.2,43.2,89,30.01,10.0,SE,5.8,-,N/A,,Clear,130,2013-10-08 10:58:00
6:58 AM,45.7,42.8,90,30.03,10.0,East,6.9,-,N/A,,Clear,90,2013-10-08 11:58:00
7:58 AM,44.8,42.4,91,30.04,10.0,East,6.9,-,N/A,,Clear,100,2013-10-08 12:58:00
8:58 AM,52.7,45.0,75,30.03,10.0,SE,10.4,-,N/A,,Clear,130,2013-10-08 13:58:00
9:58 AM,58.5,45.9,63,30.02,10.0,SSE,13.8,-,N/A,,Clear,160,2013-10-08 14:58:00
10:58 AM,65.5,45.5,48,30.01,10.0,SSE,13.8,23.0,N/A,,Clear,160,2013-10-08 15:58:00
11:58 AM,70.7,44.4,39,29.99,10.0,South,17.3,23.0,N/A,,Clear,180,2013-10-08 16:58:00
12:58 PM,74.1,42.3,32,29.97,10.0,South,18.4,25.3,N/A,,Clear,180,2013-10-08 17:58:00
1:58 PM,75.9,44.2,32,29.95,10.0,South,15.0,25.3,N/A,,Clear,170,2013-10-08 18:58:00
2:58 PM,77.4,44.8,31,29.92,10.0,SSE,23.0,31.1,N/A,,Clear,160,2013-10-08 19:58:00
3:58 PM,77.5,45.1,32,29.92,10.0,South,16.1,25.3,N/A,,Clear,170,2013-10-08 20:58:00
4:58 PM,77.0,39.2,26,-9999,10.0,South,16.1,23.0,N/A,,Scattered Clouds,170,2013-10-08 21:58:00
5:58 PM,73.4,44.6,36,29.92,10.0,SSE,18.4,-,N/A,,Mostly Cloudy,160,2013-10-08 22:58:00
6:58 PM,69.3,44.1,40,29.92,10.0,SE,17.3,-,N/A,,Clear,140,2013-10-08 23:58:00
7:58 PM,66.4,44.6,45,29.94,10.0,SE,16.1,-,N/A,,Clear,140,2013-10-09 00:58:00
8:58 PM,65.1,46.0,50,29.95,10.0,SE,13.8,-,N/A,,Clear,140,2013-10-09 01:58:00
9:58 PM,63.3,46.2,54,29.96,10.0,SE,11.5,-,N/A,,Clear,140,2013-10-09 02:58:00
10:58 PM,61.0,46.8,59,29.96,10.0,SSE,11.5,-,N/A,,Clear,150,2013-10-09 03:58:00
11:58 PM,59.7,46.4,61,29.97,10.0,SSE,11.5,-,N/A,,Clear,160,2013-10-09 04:58:00